Regional Weather Roundup
Issued by NWS

Home | Current Version | Previous Version | Text Only | Print | Product List | Glossary On
Versions: 1 2 3 4 5 6 7 8 9 10 11 12 13 14 15 16 17 18 19 20 21 22 23 24 25 26 27
000
ASUS44 KJAN 190210
RWRMS

MISSISSIPPI HOURLY WEATHER ROUNDUP
NATIONAL WEATHER SERVICE JACKSON MS
800 PM CST THU JAN 18 2018

NOTE: "FAIR: INDICATES FEW OR NO CLOUDS BELOW 12,000 FEET WITH NO
SIGNIFICANT WEATHER AND/OR OBSTRUCTIONS TO VISIBILITY.

MSZ001>002-007>008-010>013-018>021-025>028-034>036-190300-
NORTHWEST MISSISSIPPI

CITY           SKY/WX    TMP DP  RH WIND       PRES   REMARKS
BATESVILLE     FAIR      24  17  74 CALM      30.42R
CLARKSDALE     CLEAR     27  25  93 S5        30.41S WCI  21
CLEVELAND      FAIR      28  23  81 S3        30.41F
GREENWOOD      FAIR      25  19  78 CALM      30.42F
GREENVILLE     FAIR      25  21  85 SE6       30.40F WCI  18
OLIVE BRANCH   CLEAR     23  18  80 CALM      30.36R
OXFORD         FAIR      23  16  74 CALM      30.40R
TUNICA           N/A     25  19  80 S3        30.41S
WINONA         FAIR      25  19  78 CALM      30.40F
$$

MSZ003>006-009-014>017-022>024-029>033-037>039-190300-
NORTHEAST MISSISSIPPI

CITY           SKY/WX    TMP DP  RH WIND       PRES   REMARKS
ABERDEEN         N/A     23  18  80 CALM      30.42S
COLUMBUS AFB   FAIR      22  18  84 CALM      30.40F
CORINTH        FAIR      28  16  59 CALM      30.37S
GOLDN TRIANGLE FAIR      26  16  65 S3        30.41S
STARKVILLE     FAIR      27  18  69 S3        30.41F
TUPELO         FAIR      26  16  65 CALM      30.39S
$$

MSZ040-058-190300-
CENTRAL MISSISSIPPI

CITY           SKY/WX    TMP DP  RH WIND       PRES   REMARKS
JACKSON INTL   FAIR      25  15  66 CALM      30.39F
JACKSON HAWKNS FAIR      28  18  66 CALM      30.41F
MADISON        FAIR      27  18  69 CALM      30.40F
MERIDIAN KEY   FAIR      26  16  65 CALM      30.42S
MERIDIAN NAS   FAIR      27  14  58 CALM      30.42S
RAYMOND          N/A     25  21  86 CALM      30.41S
VICKSBURG VKS  CLEAR     27  21  80 CALM      30.44R
$$

MSZ059>079-190300-
SOUTH MISSISSIPPI

CITY           SKY/WX    TMP DP  RH WIND       PRES   REMARKS
COLUMBIA       FAIR      27  23  86 CALM      30.46S
HATTIESBURG    FAIR      28  21  75 CALM      30.44S
LAUREL         FAIR      27  19  72 CALM      30.43S
MCCOMB         FAIR      29  18  63 CALM      30.41S
NATCHEZ        FAIR      28  21  75 CALM      30.43S
PINE BELT      FAIR      26  21  81 CALM      30.43S
$$

MSZ080>082-190300-
COASTAL MISSISSIPPI

CITY           SKY/WX    TMP DP  RH WIND       PRES   REMARKS
BAY ST LOUIS   CLEAR     27  25  93 CALM      30.44S
BILOXI         FAIR      33  23  65 CALM      30.42F
PASCAGOULA     FAIR      27  21  78 CALM      30.43S
GULFPORT       FAIR      31  25  78 SW3       30.43S
$$

LAZ007>009-015>016-023>026-190300-
NORTHEAST LOUISIANA

CITY           SKY/WX    TMP DP  RH WIND       PRES   REMARKS
BASTROP        FAIR      24  21  88 CALM      30.41F
TALLULAH/VBURG FAIR      22  19  89 CALM      30.43S
VIDALIA        FAIR      29  21  72 MISG      30.43S
$$




USA.gov is the U.S. government's official web portal to all federal, state and local government web resources and services.